Regional Weather Roundup
Issued by NWS

Home | Current Version | Previous Version | Text Only | Print | Product List | Glossary On
Versions: 1 2 3 4 5 6 7 8 9 10 11 12 13 14 15 16 17 18 19 20 21 22 23 24 25 26 27 28 29 30 31 32 33 34 35 36 37 38 39 40 41 42 43 44 45 46 47 48 49 50
000
ASUS45 KPSR 132210
RWRAZ

ARIZONA HOURLY REGIONAL WEATHER ROUNDUP
NATIONAL WEATHER SERVICE PHOENIX AZ
300 PM MST WED DEC 13 2017

NOTE: FAIR INDICATES FEW OR NO CLOUDS BELOW 12,000 FEET WITH NO
SIGNIFICANT WEATHER AND/OR OBSTRUCTIONS TO VISIBILITY.

AZZ001>003-036-132300-
NORTHWEST ARIZONA

CITY           SKY/WX    TMP DP  RH WIND       PRES   REMARKS
BULLHEAD CITY  SUNNY     73   1   6 N16       29.96F
KINGMAN        SUNNY     68  11  11 N6        30.04F
$$

AZZ004>008-015-016-018-132300-
NORTH CENTRAL ARIZONA

CITY           SKY/WX    TMP DP  RH WIND       PRES   REMARKS
GRAND CANYON   SUNNY     60   9  13 SW8       30.13F
WILLIAMS       SUNNY     61   1   9 W7        30.11F
PRESCOTT       SUNNY     64   1   8 CALM      30.07F
FLAGSTAFF      SUNNY     57   5  12 VRB7      30.14F
PAYSON         SUNNY     61  -4   7 SW5       30.07S
PAGE           SUNNY     50  16  25 CALM      30.07F
$$

AZZ009>014-017-132300-
NORTHEAST ARIZONA

CITY           SKY/WX    TMP DP  RH WIND       PRES   REMARKS
WINSLOW        SUNNY     54   4  13 CALM      30.11F
SAINT JOHNS    SUNNY     53   5  14 NW7       30.10F
WINDOW ROCK    SUNNY     59   3  10 S7        30.09F
SHOW LOW       SUNNY     54   5  14 VRB6      30.14F
$$

AZZ540-542>544-546-548-132300-
GREATER PHOENIX AREA

CITY           SKY/WX    TMP DP  RH WIND       PRES   REMARKS
PHOENIX        MOSUNNY   76   9   7 W3        29.93F
BUCKEYE        SUNNY     73  41  31 SW3       29.95F
GLENDALE       SUNNY     75   9   7 CALM      29.96F
LUKE AFB       SUNNY     74   6   7 SW5       29.92F
DEER VALLEY    SUNNY     73   1   6 SW6       29.94F
SCOTTSDALE     SUNNY     75  13   9 SW3       29.95F
MESA-FALCON    SUNNY     75   9   7 VRB5      29.95F
MESA-GATEWAY   SUNNY     73  12   9 W3        29.95F
CHANDLER       SUNNY     73   9   8 CALM      29.94F
$$

AZZ539-553-132300-
SOUTHWEST MARICOPA COUNTY AND PINAL COUNTY

CITY           SKY/WX    TMP DP  RH WIND       PRES   REMARKS
CASA GRANDE    NOT AVBL
$$

AZZ503-504-507>509-132300-
SOUTHEAST ARIZONA

CITY           SKY/WX    TMP DP  RH WIND       PRES   REMARKS
TUCSON         SUNNY     76  24  14 N7        29.98F
DAVIS-MONTHAN  SUNNY     78  25  14 MISG      29.96F
RYAN FIELD     SUNNY     75  23  14 NW7       29.97F
NOGALES        MOSUNNY   71  30  21 W6        30.00F
SIERRA VISTA   SUNNY     68  27  21 CALM      30.05F
DOUGLAS        SUNNY     67  24  19 SE3       30.04F
SAFFORD        SUNNY     65  15  14 CALM      30.01F
$$

AZZ532-132300-
SOUTHWEST ARIZONA

CITY           SKY/WX    TMP DP  RH WIND       PRES   REMARKS
YUMA           MOSUNNY   79   6   6 NE8       29.94F
$$

CAZ041-043-047-048-061-525>527-560>570-132300-
SOUTHERN CALIFORNIA

CITY           SKY/WX    TMP DP  RH WIND       PRES   REMARKS
DOWNTOWN L.A.  SUNNY     80  21  11 CALM      29.92F
L.A. AIRPORT   MOSUNNY   72  34  24 W9        29.94F
SAN DIEGO      MOSUNNY   78   9   7 SW7       29.95F
BURBANK        SUNNY     82  17   9 SE8       29.93F
ONTARIO        SUNNY     83  -2   4 W8        29.95F
RIVERSIDE      SUNNY     82  13   7 W7        29.94F
PALM SPRINGS   SUNNY     79  12   8 VRB6      29.96F
EL CENTRO NAS  MOSUNNY   79   2   5 CALM      29.96F
IMPERIAL       SUNNY     78   7   6 CALM      29.94F
BLYTHE         SUNNY     72   2   6 S5        29.97F
NEEDLES        SUNNY     77   3   5 N9        29.97F
$$

NVZ020-UTZ003-132300-
SOUTHERN NEVADA-UTAH

CITY           SKY/WX    TMP DP  RH WIND       PRES   REMARKS
LAS VEGAS      MOSUNNY   69   8   9 CALM      30.01F
SALT LAKE CITY CLOUDY    28  25  88 CALM      30.25F FOG
$$

NMZ009-TXZ055-132300-
NEW MEXICO-WEST TEXAS

CITY           SKY/WX    TMP DP  RH WIND       PRES   REMARKS
ALBUQUERQUE    MOSUNNY   54   5  14 CALM      30.06F
EL PASO        MOSUNNY   62  21  20 SW9       30.02F
$$


........................KEY........................
SKY/WX - SKY CONDITION/WEATHER
TMP    - TEMPERATURE IN FAHRENHEIT
DP     - DEW POINT IN FAHRENHEIT
RH     - RELATIVE HUMIDITY IN PERCENT
WIND   - DIRECTION AND SPEED IN MILES PER HOUR (MPH)
VRB    - VARIABLE WIND DIRECTION
PRES   - MEAN SEA LEVEL PRESSURE IN INCHES OF MERCURY
         F - FALLING PRESSURE   R - RISING PRESSURE
         S - STEADY PRESSURE
VSB    - VISIBILITY IN MILES
HX     - HEAT INDEX IN FAHRENHEIT
WCI    - WIND CHILL INDEX IN FAHRENHEIT
TC     - TEMPERATURE IN CELSIUS WHICH IS ALSO KNOWN AS
         TEMPERATURE IN CENTIGRADE
AFB    - AIR FORCE BASE
         LUKE AFB IS LUKE AIR FORCE BASE
         DAVIS-MONTHAN IS DAVIS-MONTHAN AIR FORCE BASE
NAS    - NAVAL AIR STATION
         EL CENTRO NAS IS EL CENTRO NAVAL AIR STATION
N/A    - NOT AVAILABLE




USA.gov is the U.S. government's official web portal to all federal, state and local government web resources and services.